Location: Newark
(49.8969°N, 3.3422°E)
Time: 01:22:51
(UTC+00:00)

deb Explorer IX - Pass Details

Date: 21 January 2020
Orbit: 549 x 1099 km, 38.8° (Epoch: 25 February)

Event Time Altitude Azimuth Distance (km) Brightness Sun altitude
Rises 22:39:01 0° 217° (SW) 3,866 - -56.1°
Reaches altitude 10° 22:42:25 10° 202° (SSW) 2,938 - -56.4°
Maximum altitude 22:47:39 22° 156° (SSE) 2,193 - -56.9°
Drops below altitude 10° 22:52:50 10° 110° (ESE) 2,895 - -57.3°
Sets 22:56:08 0° 95° (E) 3,795 - -57.5°
